BEIDOU-3 IGSO-1 (C38)

Last updated on Jan. 26, 2021, 8:16 a.m. UTC

1 44204U 19023A   21025.37570130 -.00000192  00000-0  00000-0 0  9998
2 44204  55.8116  58.4770 0017598 202.4229 113.3674  1.00282424  6615
UTC
Height (km)
Latitude
Longitude
Inclination
Orbital Period
UTC large
Height (km)
Speed (km/s)
/
Latitude / Longitude
Inclination (degrees)
Orbital Period (minutes)
Azimuth
Elevation
Range (km)
Doppler Factor
iOS Compass Heading
iOS Angle

Next 30 passes for location: Hong Kong

Rise time Rise Azimuth (degrees) Set time Set Azimuth (degrees) Duration Max altitude (degrees)

No matching passes for this satellites